Погода в Королёве

Россия / Тюменская область     56°33′20″N   68°29′14″E
темп.,
°C
ветер,
м/с
пор.,
м/с
влажн.,
%
обл.,
%
осадки,
мм/ч
давл.,
гПа
погр.,
м
30 ноября, вт
вт3023:00−9юз388638 0.0 1022115
02:00−6юз378689 0.0 1021152
05:00−4юз3789100 0.0 1021151
08:00−4юз3691100 0.0 1020125
11:00−2юз369399 0.0 1020154
14:00−1юз4793100 0.0 1020253
17:00−2ююз489393 0.0 1020201
20:00−6ю410905 0.0 1019158
1 декабря, ср
ср123:00−7ю5137996 0.0 1018220
02:00−6ю61683100 0.0 1017292
05:00−4ю71976100 0.0 1015380
08:00−3ююз71874100 0.0 1014419
11:00−2ююз71877100 0.0 1014468
14:00−1ююз71686100 0.6 1013420
17:00−1ю71687100 1.1 1012422
20:00−1ю71578100 0.3 1011358
2 декабря, чт
чт223:00−1ю71777100 0.3 1009349
02:00−2ю71874100 0.0 1008367
05:00+1ю71875100 0.0 1005475
08:00+1ю71880100 0.1 1003441
11:00+2ююз71882100 0.1 1002536
14:00+1ююз61486100 0.0 1001475
17:000ююз51290100 0.0 1001339
20:000ююз4996100 0.1 999311
3 декабря, пт
пт323:000юз4997100 0.3 999341
02:000з6109589 1.2 1000610
05:00−4з6129165 1.2 1002444
08:00−6зюз511905 0.0 1004313
11:00−5зюз612905 0.0 1006410
14:00−4зюз71389100 0.0 1006770
17:00−5зюз61286100 0.1 1008670
20:00−5зюз6138998 0.0 1010648
4 декабря, сб
сб423:00−6зюз6138931 0.1 1012417
02:00−6зюз5129285 0.0 1014407
05:00−6зюз5119479 0.0 1016303
08:00−6зюз5129540 0.0 1019305
11:00−5зюз5129416 0.0 1021338
14:00−3зюз4994100 0.0 1022290
17:00−6юз369799 0.0 102589
20:00−4ююз379588 0.0 1025130